• In India
  • List of Countries
  • For 7 days
  • Water Temperature
  • Satellite Maps
  • Weather Map
  • Weather Widgets
  • user-avatar
    Login

    Hourly Weather Popeliv

    Today, 20 August, Monday

    Time Temperature Precipitation Wind Pressure Humidity
    00:00 +20°C° 0 mm 0 mps 737 mmHg 89%
    01:00 +19°C° 0 mm 0 mps 737 mmHg 93%
    02:00 +16°C° 0 mm 0 mps 737 mmHg 93%
    03:00 +18°C° 0 mm 1 mps 737 mmHg 96%
    04:00 +18°C° 0 mm 1 mps 737 mmHg 95%
    05:00 +16°C° 0 mm 0 mps 736 mmHg 94%
    06:00 +16°C° 0 mm 0 mps 736 mmHg 96%
    07:00 +16°C° 0 mm 0 mps 737 mmHg 96%
    08:00 +18°C° 0 mm 0 mps 737 mmHg 97%
    09:00 +19°C° 0 mm 0 mps 737 mmHg 94%
    10:00 +21°C° 0 mm 0 mps 737 mmHg 91%
    11:00 +24°C° 0 mm 1 mps 737 mmHg 89%
    12:00 +25°C° 0 mm 1 mps 737 mmHg 86%
    13:00 +26°C° 0 mm 1 mps 737 mmHg 81%
    14:00 +28°C° 0 mm 1 mps 736 mmHg 60%
    15:00 +28°C° 0 mm 2 mps 736 mmHg 69%
    16:00 +28°C° 0 mm 2 mps 736 mmHg 71%
    17:00 +27°C° 0 mm 2 mps 736 mmHg 75%
    18:00 +27°C° 0 mm 1 mps 735 mmHg 85%
    19:00 +26°C° 0 mm 1 mps 735 mmHg 91%
    20:00 +25°C° 0 mm 1 mps 735 mmHg 89%
    21:00 +25°C° 0 mm 1 mps 734 mmHg 88%
    22:00 +24°C° 0 mm 1 mps 734 mmHg 89%
    23:00 +23°C° 0 mm 1 mps 735 mmHg 90%

    Tomorrow, 21 August, Tuesday

    Time Temperature Precipitation Wind Pressure Humidity
    00:00 +23°C° 0 mm 1 mps 735 mmHg 90%
    01:00 +22°C° 0 mm 1 mps 734 mmHg 94%
    02:00 +21°C° 0 mm 1 mps 734 mmHg 98%
    03:00 +21°C° 0 mm 1 mps 735 mmHg 96%
    04:00 +21°C° 0 mm 1 mps 734 mmHg 88%
    05:00 +20°C° 0 mm 1 mps 734 mmHg 84%
    06:00 +20°C° 0 mm 1 mps 734 mmHg 82%
    07:00 +20°C° 0 mm 1 mps 735 mmHg 88%
    08:00 +20°C° 0 mm 2 mps 735 mmHg 90%
    09:00 +22°C° 0 mm 3 mps 735 mmHg 94%
    10:00 +23°C° 0 mm 4 mps 736 mmHg 97%
    11:00 +25°C° 0 mm 4 mps 736 mmHg 95%
    12:00 +25°C° 0 mm 4 mps 736 mmHg 94%
    13:00 +26°C° 0 mm 4 mps 736 mmHg 88%
    14:00 +26°C° 0 mm 4 mps 736 mmHg 86%
    15:00 +26°C° 0 mm 4 mps 736 mmHg 86%
    16:00 +25°C° 0 mm 4 mps 736 mmHg 86%
    17:00 +25°C° 0 mm 4 mps 736 mmHg 86%
    18:00 +23°C° 0 mm 4 mps 736 mmHg 89%
    19:00 +22°C° 0 mm 3 mps 736 mmHg 91%
    20:00 +21°C° 0 mm 2 mps 736 mmHg 95%
    21:00 +20°C° 0 mm 2 mps 737 mmHg 96%
    22:00 +20°C° 0 mm 2 mps 737 mmHg 97%
    23:00 +19°C° 0 mm 2 mps 737 mmHg 97%

    Day after tomorrow, 22 August, Wednesday

    Time Temperature Precipitation Wind Pressure Humidity
    00:00 +19°C° 0 mm 2 mps 738 mmHg 98%
    01:00 +18°C° 0 mm 2 mps 738 mmHg 99%
    02:00 +18°C° 0 mm 1 mps 738 mmHg 99%
    03:00 +18°C° 0 mm 1 mps 738 mmHg 100%
    04:00 +18°C° 0 mm 1 mps 738 mmHg 100%
    05:00 +16°C° 0 mm 1 mps 738 mmHg 100%
    06:00 +16°C° 0 mm 1 mps 738 mmHg 100%
    07:00 +16°C° 0 mm 1 mps 739 mmHg 100%
    08:00 +16°C° 0 mm 1 mps 739 mmHg 100%
    09:00 +16°C° 0 mm 0 mps 739 mmHg 97%
    10:00 +18°C° 0 mm 0 mps 740 mmHg 94%
    11:00 +19°C° 0 mm 0 mps 740 mmHg 87%
    12:00 +22°C° 0 mm 1 mps 740 mmHg 83%
    13:00 +22°C° 0 mm 1 mps 739 mmHg 83%
    14:00 +21°C° 0 mm 2 mps 739 mmHg 83%
    15:00 +23°C° 0 mm 2 mps 739 mmHg 81%
    16:00 +23°C° 0 mm 2 mps 739 mmHg 82%
    17:00 +23°C° 0 mm 2 mps 739 mmHg 83%
    18:00 +21°C° 0 mm 2 mps 739 mmHg 87%
    19:00 +20°C° 0 mm 2 mps 739 mmHg 94%
    20:00 +19°C° 0 mm 2 mps 739 mmHg 96%
    21:00 +19°C° 0 mm 2 mps 739 mmHg 96%
    22:00 +18°C° 0 mm 3 mps 739 mmHg 98%
    23:00 +18°C° 0 mm 3 mps 739 mmHg 99%

    23 August, Thursday

    Time Temperature Precipitation Wind Pressure Humidity
    00:00 +17°C° 0 mm 3 mps 739 mmHg 100%
    01:00 +17°C° 0 mm 3 mps 739 mmHg 100%
    02:00 +17°C° 0 mm 3 mps 739 mmHg 100%
    03:00 +17°C° 0 mm 3 mps 739 mmHg 100%
    04:00 +15°C° 0 mm 4 mps 738 mmHg 99%
    05:00 +15°C° 0 mm 4 mps 738 mmHg 99%
    06:00 +15°C° 0 mm 4 mps 738 mmHg 99%
    07:00 +17°C° 0 mm 4 mps 738 mmHg 98%
    08:00 +17°C° 0 mm 5 mps 738 mmHg 98%
    09:00 +19°C° 0 mm 5 mps 738 mmHg 97%
    10:00 +19°C° 0 mm 5 mps 738 mmHg 97%
    11:00 +20°C° 0 mm 5 mps 738 mmHg 97%
    12:00 +21°C° 0 mm 5 mps 738 mmHg 96%
    13:00 +21°C° 0 mm 5 mps 737 mmHg 96%
    14:00 +22°C° 0 mm 6 mps 737 mmHg 93%
    15:00 +23°C° 0 mm 6 mps 737 mmHg 90%
    16:00 +23°C° 0 mm 6 mps 736 mmHg 90%
    17:00 +22°C° 0 mm 5 mps 736 mmHg 92%
    18:00 +22°C° 0 mm 5 mps 736 mmHg 93%
    19:00 +21°C° 0 mm 5 mps 736 mmHg 94%
    20:00 +20°C° 0 mm 4 mps 736 mmHg 96%
    21:00 +20°C° 0 mm 5 mps 736 mmHg 96%
    22:00 +20°C° 0 mm 5 mps 736 mmHg 96%
    23:00 +19°C° 0 mm 5 mps 736 mmHg 97%

    24 August, Friday

    Time Temperature Precipitation Wind Pressure Humidity
    00:00 +19°C° 0 mm 4 mps 735 mmHg 98%
    01:00 +18°C° 0 mm 4 mps 735 mmHg 99%
    02:00 +18°C° 0 mm 4 mps 735 mmHg 100%
    03:00 +18°C° 0 mm 4 mps 735 mmHg 100%
    04:00 +17°C° 0 mm 4 mps 734 mmHg 100%
    05:00 +17°C° 0 mm 3 mps 734 mmHg 100%
    06:00 +17°C° 0 mm 3 mps 734 mmHg 100%
    07:00 +17°C° 0 mm 3 mps 734 mmHg 99%
    08:00 +19°C° 0 mm 3 mps 734 mmHg 97%
    09:00 +20°C° 0 mm 3 mps 734 mmHg 97%
    10:00 +21°C° 0 mm 3 mps 735 mmHg 95%
    11:00 +22°C° 0 mm 3 mps 734 mmHg 94%
    12:00 +24°C° 0 mm 3 mps 734 mmHg 91%
    13:00 +25°C° 0 mm 4 mps 733 mmHg 93%
    14:00 +25°C° 0 mm 4 mps 733 mmHg 92%

    25 August, Saturday

    Time Temperature Precipitation Wind Pressure Humidity
    Show more